Time,TemperatureF,DewpointF,PressureIn,WindDirection,WindDirectionDegrees,WindSpeedMPH,WindSpeedGustMPH,Humidity,HourlyPrecipIn,Conditions,Clouds,dailyrainin,SolarRadiationWatts/m^2,SoftwareType,DateUTC
2013-05-06 00:08:00,53.1,46.0,29.95,ENE,71,5.0,8.0,76,0.00,,,0.00,0,weatherlink.com 1.10,2013-05-06 05:08:00,
2013-05-06 00:23:00,54.5,46.0,29.95,East,85,6.0,8.0,74,0.00,,,0.00,0,weatherlink.com 1.10,2013-05-06 05:23:00,
2013-05-06 00:38:00,53.6,46.0,29.95,East,87,7.0,8.0,76,0.00,,,0.00,0,weatherlink.com 1.10,2013-05-06 05:38:00,
2013-05-06 00:53:00,52.7,46.0,29.95,East,88,6.0,7.0,77,0.00,,,0.00,0,weatherlink.com 1.10,2013-05-06 05:53:00,
2013-05-06 01:08:00,51.5,45.0,29.95,East,88,5.0,6.0,79,0.00,,,0.00,0,weatherlink.com 1.10,2013-05-06 06:08:00,
2013-05-06 01:23:00,51.7,45.0,29.95,East,88,1.0,5.0,79,0.00,,,0.00,0,weatherlink.com 1.10,2013-05-06 06:23:00,
2013-05-06 01:38:00,51.2,45.0,29.95,East,88,3.0,3.0,79,0.00,,,0.00,0,weatherlink.com 1.10,2013-05-06 06:38:00,
2013-05-06 01:53:00,50.1,44.0,29.95,East,88,3.0,5.0,80,0.00,,,0.00,0,weatherlink.com 1.10,2013-05-06 06:53:00,
2013-05-06 02:08:00,49.0,44.0,29.95,East,88,2.0,5.0,82,0.00,,,0.00,0,weatherlink.com 1.10,2013-05-06 07:08:00,
2013-05-06 02:24:00,48.1,44.0,29.95,East,88,5.0,5.0,84,0.00,,,0.00,0,weatherlink.com 1.10,2013-05-06 07:24:00,
2013-05-06 02:39:00,47.8,44.0,29.95,East,88,3.0,5.0,85,0.00,,,0.00,0,weatherlink.com 1.10,2013-05-06 07:39:00,
2013-05-06 02:54:00,47.9,44.0,29.95,East,88,0.0,3.0,86,0.00,,,0.00,0,weatherlink.com 1.10,2013-05-06 07:54:00,
2013-05-06 03:09:00,47.6,44.0,29.95,East,88,0.0,0.0,87,0.00,,,0.00,0,weatherlink.com 1.10,2013-05-06 08:09:00,
2013-05-06 03:24:00,46.6,43.0,29.95,NNW,347,4.0,6.0,86,0.00,,,0.00,0,weatherlink.com 1.10,2013-05-06 08:24:00,
2013-05-06 03:39:00,46.1,43.0,29.96,NNW,347,4.0,5.0,90,0.00,,,0.00,0,weatherlink.com 1.10,2013-05-06 08:39:00,
2013-05-06 03:54:00,47.0,44.0,29.96,NNW,347,4.0,5.0,88,0.00,,,0.00,0,weatherlink.com 1.10,2013-05-06 08:54:00,
2013-05-06 04:09:00,46.3,43.0,29.96,NNW,347,2.0,4.0,89,0.00,,,0.00,0,weatherlink.com 1.10,2013-05-06 09:09:00,
2013-05-06 04:24:00,45.7,43.0,29.96,NNW,347,2.0,5.0,90,0.00,,,0.00,0,weatherlink.com 1.10,2013-05-06 09:24:00,
2013-05-06 04:39:00,45.3,42.0,29.96,NNW,347,4.0,5.0,89,0.00,,,0.00,0,weatherlink.com 1.10,2013-05-06 09:39:00,
2013-05-06 04:54:00,44.6,42.0,29.96,NNW,347,4.0,5.0,90,0.00,,,0.00,0,weatherlink.com 1.10,2013-05-06 09:54:00,
2013-05-06 05:09:00,44.4,42.0,29.97,NNW,347,2.0,3.0,92,0.00,,,0.00,0,weatherlink.com 1.10,2013-05-06 10:09:00,
2013-05-06 05:24:00,44.5,42.0,29.97,NNW,347,2.0,5.0,91,0.00,,,0.00,0,weatherlink.com 1.10,2013-05-06 10:24:00,
2013-05-06 05:39:00,44.8,43.0,29.97,NNW,347,4.0,5.0,92,0.00,,,0.00,0,weatherlink.com 1.10,2013-05-06 10:39:00,
2013-05-06 05:54:00,44.0,42.0,29.97,NNW,347,4.0,5.0,91,0.00,,,0.00,5,weatherlink.com 1.10,2013-05-06 10:54:00,
2013-05-06 06:09:00,44.0,42.0,29.97,NNW,347,4.0,5.0,91,0.00,,,0.00,14,weatherlink.com 1.10,2013-05-06 11:09:00,
2013-05-06 06:24:00,44.5,42.0,29.98,NNW,347,5.0,5.0,92,0.00,,,0.00,26,weatherlink.com 1.10,2013-05-06 11:24:00,
2013-05-06 06:39:00,44.9,43.0,29.98,NNW,347,4.0,5.0,92,0.00,,,0.00,60,weatherlink.com 1.10,2013-05-06 11:39:00,
2013-05-06 06:54:00,46.5,45.0,29.98,NNW,347,4.0,4.0,93,0.00,,,0.00,167,weatherlink.com 1.10,2013-05-06 11:54:00,
2013-05-06 07:09:00,49.2,47.0,29.99,NNW,347,3.0,4.0,91,0.00,,,0.00,199,weatherlink.com 1.10,2013-05-06 12:09:00,
2013-05-06 07:24:00,51.4,48.0,29.99,NNW,347,3.0,4.0,89,0.00,,,0.00,220,weatherlink.com 1.10,2013-05-06 12:24:00,
2013-05-06 07:39:00,54.2,49.0,29.99,NNW,346,4.0,5.0,81,0.00,,,0.00,248,weatherlink.com 1.10,2013-05-06 12:39:00,
2013-05-06 07:54:00,56.5,49.0,29.99,NNW,345,3.0,5.0,77,0.00,,,0.00,278,weatherlink.com 1.10,2013-05-06 12:54:00,
2013-05-06 08:09:00,57.4,48.0,30.00,NNW,340,3.0,8.0,71,0.00,,,0.00,329,weatherlink.com 1.10,2013-05-06 13:09:00,
2013-05-06 08:24:00,58.3,49.0,30.00,NNW,333,2.0,8.0,72,0.00,,,0.00,415,weatherlink.com 1.10,2013-05-06 13:24:00,
2013-05-06 08:39:00,59.0,49.0,30.00,NNW,338,6.0,10.0,69,0.00,,,0.00,209,weatherlink.com 1.10,2013-05-06 13:39:00,
2013-05-06 08:54:00,59.4,49.0,30.00,NNW,334,6.0,10.0,68,0.00,,,0.00,265,weatherlink.com 1.10,2013-05-06 13:54:00,
2013-05-06 09:10:00,61.1,48.0,30.00,North,355,3.0,7.0,63,0.00,,,0.00,380,weatherlink.com 1.10,2013-05-06 14:10:00,
2013-05-06 09:25:00,62.7,48.0,30.00,North,360,1.0,7.0,59,0.00,,,0.00,427,weatherlink.com 1.10,2013-05-06 14:25:00,
2013-05-06 09:40:00,64.0,50.0,29.99,NNW,331,7.0,9.0,60,0.00,,,0.00,464,weatherlink.com 1.10,2013-05-06 14:40:00,
2013-05-06 09:55:00,65.3,50.0,29.99,NNW,329,5.0,9.0,58,0.00,,,0.00,724,weatherlink.com 1.10,2013-05-06 14:55:00,
2013-05-06 10:10:00,67.0,50.0,29.99,North,9,5.0,10.0,54,0.00,,,0.00,708,weatherlink.com 1.10,2013-05-06 15:10:00,
2013-05-06 10:25:00,67.8,49.0,29.98,NNW,329,4.0,11.0,52,0.00,,,0.00,744,weatherlink.com 1.10,2013-05-06 15:25:00,
2013-05-06 10:40:00,68.3,51.0,29.98,NNE,26,3.0,11.0,55,0.00,,,0.00,777,weatherlink.com 1.10,2013-05-06 15:40:00,
2013-05-06 10:55:00,69.0,50.0,29.98,North,355,7.0,11.0,52,0.00,,,0.00,819,weatherlink.com 1.10,2013-05-06 15:55:00,
2013-05-06 11:10:00,69.5,49.0,29.98,NNE,28,8.0,11.0,48,0.00,,,0.00,823,weatherlink.com 1.10,2013-05-06 16:10:00,
2013-05-06 11:25:00,70.5,49.0,29.98,NE,47,10.0,14.0,46,0.00,,,0.00,937,weatherlink.com 1.10,2013-05-06 16:25:00,
2013-05-06 11:40:00,71.2,50.0,29.97,NE,42,16.0,16.0,47,0.00,,,0.00,963,weatherlink.com 1.10,2013-05-06 16:40:00,
2013-05-06 11:55:00,71.1,50.0,29.97,NNE,14,6.0,15.0,47,0.00,,,0.00,1034,weatherlink.com 1.10,2013-05-06 16:55:00,
2013-05-06 12:10:00,71.3,47.0,29.96,East,90,5.0,12.0,42,0.00,,,0.00,877,weatherlink.com 1.10,2013-05-06 17:10:00,
2013-05-06 12:25:00,71.7,47.0,29.96,ENE,78,9.0,16.0,41,0.00,,,0.00,584,weatherlink.com 1.10,2013-05-06 17:25:00,
2013-05-06 12:40:00,71.8,46.0,29.96,NE,52,8.0,16.0,40,0.00,,,0.00,703,weatherlink.com 1.10,2013-05-06 17:40:00,
2013-05-06 12:55:00,72.1,48.0,29.96,ENE,62,11.0,16.0,42,0.00,,,0.00,603,weatherlink.com 1.10,2013-05-06 17:55:00,
2013-05-06 13:10:00,72.4,47.0,29.95,ENE,60,8.0,13.0,40,0.00,,,0.00,715,weatherlink.com 1.10,2013-05-06 18:10:00,
2013-05-06 13:25:00,72.6,45.0,29.95,ENE,71,7.0,17.0,37,0.00,,,0.00,603,weatherlink.com 1.10,2013-05-06 18:25:00,
2013-05-06 13:40:00,72.1,44.0,29.95,ENE,65,4.0,15.0,37,0.00,,,0.00,513,weatherlink.com 1.10,2013-05-06 18:40:00,
2013-05-06 13:55:00,71.9,43.0,29.95,East,80,8.0,10.0,36,0.00,,,0.00,483,weatherlink.com 1.10,2013-05-06 18:55:00,
2013-05-06 14:10:00,72.0,44.0,29.94,ENE,62,5.0,13.0,37,0.00,,,0.00,503,weatherlink.com 1.10,2013-05-06 19:10:00,
2013-05-06 14:25:00,71.9,44.0,29.94,NNE,32,1.0,11.0,37,0.00,,,0.00,538,weatherlink.com 1.10,2013-05-06 19:25:00,
2013-05-06 14:40:00,72.6,45.0,29.93,ENE,71,9.0,12.0,37,0.00,,,0.00,519,weatherlink.com 1.10,2013-05-06 19:40:00,
2013-05-06 14:55:00,72.5,45.0,29.93,ENE,64,11.0,11.0,38,0.00,,,0.00,517,weatherlink.com 1.10,2013-05-06 19:55:00,
2013-05-06 15:10:00,72.2,44.0,29.93,NE,41,8.0,13.0,37,0.00,,,0.00,615,weatherlink.com 1.10,2013-05-06 20:10:00,
2013-05-06 15:25:00,72.5,45.0,29.92,NE,54,12.0,13.0,37,0.00,,,0.00,478,weatherlink.com 1.10,2013-05-06 20:25:00,
2013-05-06 15:41:00,72.6,44.0,29.92,NE,45,6.0,11.0,36,0.00,,,0.00,487,weatherlink.com 1.10,2013-05-06 20:41:00,
2013-05-06 15:56:00,72.6,44.0,29.92,East,80,10.0,12.0,36,0.00,,,0.00,461,weatherlink.com 1.10,2013-05-06 20:56:00,
2013-05-06 16:11:00,72.4,45.0,29.91,NE,41,7.0,15.0,37,0.00,,,0.00,413,weatherlink.com 1.10,2013-05-06 21:11:00,
2013-05-06 16:26:00,72.2,44.0,29.91,East,82,7.0,10.0,37,0.00,,,0.00,408,weatherlink.com 1.10,2013-05-06 21:26:00,
2013-05-06 16:41:00,72.4,45.0,29.91,East,79,11.0,14.0,38,0.00,,,0.00,374,weatherlink.com 1.10,2013-05-06 21:41:00,
2013-05-06 16:56:00,72.4,45.0,29.91,East,82,10.0,12.0,38,0.00,,,0.00,355,weatherlink.com 1.10,2013-05-06 21:56:00,
2013-05-06 17:11:00,72.3,44.0,29.91,NE,46,7.0,10.0,37,0.00,,,0.00,345,weatherlink.com 1.10,2013-05-06 22:11:00,
2013-05-06 17:26:00,72.5,43.0,29.91,East,90,13.0,13.0,35,0.00,,,0.00,339,weatherlink.com 1.10,2013-05-06 22:26:00,
2013-05-06 17:41:00,72.3,44.0,29.91,NE,52,7.0,11.0,36,0.00,,,0.00,244,weatherlink.com 1.10,2013-05-06 22:41:00,
2013-05-06 17:56:00,71.7,45.0,29.91,ENE,77,8.0,9.0,38,0.00,,,0.00,204,weatherlink.com 1.10,2013-05-06 22:56:00,
2013-05-06 18:11:00,71.4,44.0,29.91,ENE,70,5.0,11.0,37,0.00,,,0.00,162,weatherlink.com 1.10,2013-05-06 23:11:00,
2013-05-06 18:26:00,71.3,44.0,29.91,NE,53,5.0,7.0,38,0.00,,,0.00,165,weatherlink.com 1.10,2013-05-06 23:26:00,
2013-05-06 18:41:00,70.9,44.0,29.91,ENE,64,7.0,9.0,38,0.00,,,0.00,118,weatherlink.com 1.10,2013-05-06 23:41:00,
2013-05-06 18:56:00,70.5,45.0,29.91,ENE,57,5.0,5.0,40,0.00,,,0.00,102,weatherlink.com 1.10,2013-05-06 23:56:00,
2013-05-06 19:11:00,70.3,47.0,29.91,ENE,57,4.0,4.0,44,0.00,,,0.00,81,weatherlink.com 1.10,2013-05-07 00:11:00,
2013-05-06 19:26:00,69.8,47.0,29.91,ENE,57,2.0,4.0,44,0.00,,,0.00,79,weatherlink.com 1.10,2013-05-07 00:26:00,
2013-05-06 19:41:00,69.3,47.0,29.91,ENE,57,2.0,4.0,45,0.00,,,0.00,35,weatherlink.com 1.10,2013-05-07 00:41:00,
2013-05-06 19:56:00,68.3,47.0,29.91,ENE,57,0.0,2.0,46,0.00,,,0.00,12,weatherlink.com 1.10,2013-05-07 00:56:00,
2013-05-06 20:11:00,67.2,47.0,29.91,ENE,57,3.0,3.0,49,0.00,,,0.00,0,weatherlink.com 1.10,2013-05-07 01:11:00,
2013-05-06 20:26:00,66.5,45.0,29.92,ENE,57,2.0,4.0,46,0.00,,,0.00,0,weatherlink.com 1.10,2013-05-07 01:26:00,
2013-05-06 20:41:00,66.5,45.0,29.92,ENE,57,3.0,5.0,47,0.00,,,0.00,0,weatherlink.com 1.10,2013-05-07 01:41:00,
2013-05-06 20:56:00,66.3,46.0,29.92,ENE,57,3.0,5.0,49,0.00,,,0.00,0,weatherlink.com 1.10,2013-05-07 01:56:00,
2013-05-06 21:11:00,65.2,49.0,29.93,ENE,57,0.0,3.0,56,0.00,,,0.00,0,weatherlink.com 1.10,2013-05-07 02:11:00,
2013-05-06 21:26:00,63.2,49.0,29.93,ENE,57,0.0,1.0,60,0.00,,,0.00,0,weatherlink.com 1.10,2013-05-07 02:26:00,
2013-05-06 21:41:00,63.1,48.0,29.94,ENE,57,0.0,3.0,58,0.00,,,0.00,0,weatherlink.com 1.10,2013-05-07 02:41:00,
2013-05-06 21:56:00,63.2,48.0,29.94,ENE,57,0.0,3.0,57,0.00,,,0.00,0,weatherlink.com 1.10,2013-05-07 02:56:00,
2013-05-06 22:11:00,62.4,48.0,29.94,ENE,57,0.0,0.0,60,0.00,,,0.00,0,weatherlink.com 1.10,2013-05-07 03:11:00,
2013-05-06 22:26:00,62.1,46.0,29.94,ENE,57,0.0,0.0,56,0.00,,,0.00,0,weatherlink.com 1.10,2013-05-07 03:26:00,
2013-05-06 22:41:00,62.7,47.0,29.94,ENE,57,1.0,2.0,56,0.00,,,0.00,0,weatherlink.com 1.10,2013-05-07 03:41:00,
2013-05-06 22:56:00,62.6,46.0,29.93,ENE,57,1.0,2.0,56,0.00,,,0.00,0,weatherlink.com 1.10,2013-05-07 03:56:00,
2013-05-06 23:11:00,62.3,48.0,29.94,ENE,57,3.0,3.0,61,0.00,,,0.00,0,weatherlink.com 1.10,2013-05-07 04:11:00,
2013-05-06 23:26:00,61.2,48.0,29.93,ENE,57,0.0,1.0,63,0.00,,,0.00,0,weatherlink.com 1.10,2013-05-07 04:26:00,
2013-05-06 23:41:00,60.7,46.0,29.93,ENE,57,0.0,2.0,58,0.00,,,0.00,0,weatherlink.com 1.10,2013-05-07 04:41:00,
2013-05-06 23:56:00,60.6,46.0,29.94,ENE,57,0.0,1.0,60,0.00,,,0.00,0,weatherlink.com 1.10,2013-05-07 04:56:00,